Flag for U.S.A. Weather past 2 weeks in Wichita, Kansas, U.S.A.

Now
52 °F

Mostly cloudy.


Feels Like: 47 °F
Forecast: 48 / 57 °F
Wind: 16 mph from Northeast

Location: Wichita Mid-Continent Airport

Current Time: Apr 27, 2015 at 9:12:36 AM

Latest Report: Apr 27, 2015 at 8:53 AM


Visibility: 10 mi

Pressure: 30.02 "Hg

Humidity: 57%

Dew point: 37 °F

Location of WichitaLocation

Historic Weather in Wichita — Graph

°F

Wichita temperature yesterday

Maximum temperature yesterday: 57 °F (at 2:53 PM)
Minimum temperature yesterday: 50 °F (at 5:53 AM)
Average temperature yesterday: 53 °F

Past Weeks' High & Low Weather Summary

 TemperatureHumidityPressure
High79 °F (Apr 12, 4:53 PM)100% (Apr 12, 11:53 PM)30.23 "Hg (Apr 12, 11:53 PM)
Low41 °F (Apr 20, 6:53 AM)20% (Apr 13, 1:53 PM)29.37 "Hg (Apr 25, 2:53 AM)
Average60 °F64%29.89 "Hg
* Reported Apr 12 6:53 AM — Apr 27 6:53 AM, Wichita, Weather by CustomWeather, © 2015

Note: Actual official high and low records may vary slightly from our data, if they occured in-between our weather recording intervals... More about our weather records

Advertising

Wichita weather history for previous 24 hours

 ConditionsComfort  
Time TempWeatherWind HumidityBarometerVisibility
6:53 AM
Mon, Apr 27
51 °FOvercast.15 mph59%29.99 "Hg10 mi
5:53 AM52 °FMostly cloudy.16 mph57%29.98 "Hg10 mi
4:53 AM52 °FOvercast.14 mph59%29.98 "Hg10 mi
3:53 AM53 °FMostly cloudy.10 mph59%29.98 "Hg10 mi
2:53 AM53 °FMostly cloudy.9 mph59%29.98 "Hg10 mi
1:53 AM52 °FOvercast.3 mph66%29.99 "Hg10 mi
12:53 AM53 °FOvercast.13 mph69%29.96 "Hg10 mi
11:53 PM
Sun, Apr 26
53 °FMostly cloudy.9 mph74%29.94 "Hg10 mi
10:53 PM53 °FPartly cloudy.13 mph74%29.94 "Hg10 mi
9:53 PM53 °FPassing clouds.10 mph74%29.94 "Hg10 mi
8:53 PM53 °FScattered clouds.12 mph72%29.89 "Hg10 mi
7:53 PM53 °FOvercast.18 mph72%29.88 "Hg10 mi
6:53 PM54 °FOvercast.17 mph72%29.86 "Hg10 mi
5:53 PM55 °FOvercast.22 mph69%29.86 "Hg10 mi
4:53 PM56 °FOvercast.21 mph70%29.84 "Hg10 mi
3:53 PM57 °FOvercast.23 mph69%29.83 "Hg10 mi
2:53 PM57 °FOvercast.23 mph69%29.85 "Hg10 mi
1:53 PM56 °FOvercast.18 mph72%29.88 "Hg10 mi
12:53 PM55 °FOvercast.20 mph74%29.88 "Hg10 mi
11:53 AM54 °FLow clouds.18 mph80%29.88 "Hg10 mi
10:53 AM53 °FDrizzle. Low clouds.15 mph83%29.88 "Hg10 mi
9:53 AM53 °FOvercast.14 mph83%29.87 "Hg10 mi
Weather by CustomWeather, © 2015

See weather overviewHow to use our weather pages